This demonstration page uses our WeatherBlox Daily Observations layout. Learn more.

Left ArrowRight Arrow

41.86663, -103.66717

Hourly Observations for March 12, 2020

Temp ( °F °C ) Dew Point ( °F °C ) Humidity (%) Winds ( mph kmh ) Pressure ( in mb ) Visibility ( mi km ) Precip ( " mm )
12:53 am 00:53 Clear 52 11.1 31 -0.6 45 45 W 15 24 29.60 1002 10 16 N/A
1:53 am 01:53 Clear 50 10 30 -1.1 46 46 W 20 31 29.62 1003 10 16 N/A
2:53 am 02:53 Clear 47 8.3 29 -1.7 50 50 NNW 20 31 29.70 1006 10 16 N/A
3:53 am 03:53 Mostly Cloudy 40 4.4 32 undefined 73 73 NW 9 15 29.76 1008 10 16 N/A
4:53 am 04:53 Cloudy 39 3.9 32 undefined 76 76 N N/A 29.78 1008 10 16 N/A
5:53 am 05:53 Cloudy with Light Rain 39 3.9 32 undefined 76 76 NW 9 15 29.82 1010 10 16 0.00 0.00
6:53 am 06:53 Cloudy with Light Rain 39 3.9 32 undefined 76 76 WNW 10 17 29.85 1011 10 16 0.00 0.00
7:53 am 07:53 Cloudy 38 3.3 30 -1.1 73 73 WNW 13 20 29.90 1013 10 16 0.00 0.00
8:53 am 08:53 Cloudy 39 3.9 30 -1.1 70 70 NW 18 30 29.94 1014 10 16 N/A
9:50 am 09:50 Cloudy with Light Snow 37 3 32 undefined 81 81 NW 17 28 30.06 1018 3 5 0.00 0.00
9:53 am 09:53 Cloudy with Light Snow 37 2.8 32 undefined 82 82 NW 18 30 30.00 1016 3 5 0.00 0.00
10:18 am 10:18 Windy with Snow Likely 37 3 30 -1 75 75 NNW 20 31 30.07 1018 9 14 N/A
10:53 am 10:53 Windy with Snow Likely 37 2.8 28 -2.2 70 70 N 21 33 30.02 1017 7 11 0.00 0.00
11:04 am 11:04 Cloudy 38 3.3 27 -2.8 65 65 N 23 37 30.09 1019 9 14 0.00 0.00
11:19 am 11:19 Cloudy 37 2.8 27 -2.8 67 67 N 21 33 30.11 1020 10 16 0.00 0.00
11:27 am 11:27 Cloudy 38 3.3 27 -2.8 65 65 N 21 33 30.10 1019 10 16 0.00 0.00
11:37 am 11:37 Cloudy 39 3.9 27 -2.8 62 62 NNW 21 33 30.09 1019 10 16 0.00 0.00
11:53 am 11:53 Cloudy 39 3.9 27 -2.8 62 62 NNW 17 28 30.03 1017 10 16 0.00 0.00
12:53 pm 12:53 Cloudy 42 5.6 27 -2.8 55 55 NNW 17 28 30.02 1017 10 16 N/A
1:53 pm 13:53 Cloudy 43 6.1 24 -4.4 47 47 NNW 16 26 30.01 1016 10 16 N/A
2:53 pm 14:53 Cloudy 41 5 20 -6.7 43 43 NNW 14 22 30.02 1017 10 16 N/A
3:53 pm 15:53 Cloudy 40 4.4 19 -7.2 43 43 NW 15 24 30.07 1018 10 16 N/A
4:53 pm 16:53 Cloudy 40 4.4 19 -7.2 43 43 NNW 13 20 30.08 1019 10 16 N/A
5:53 pm 17:53 Cloudy 40 4.4 19 -7.2 43 43 NW 8 13 30.10 1019 10 16 N/A
6:53 pm 18:53 Cloudy 39 3.9 19 -7.2 45 45 WNW 5 7 30.13 1020 10 16 N/A
7:53 pm 19:53 Cloudy 36 2.2 22 -5.6 57 57 undefined N/A 30.14 1021 10 16 N/A
8:53 pm 20:53 Mostly Clear 32 undefined 23 -5 69 69 NNW 5 7 30.16 1022 10 16 N/A
9:53 pm 21:53 Clear 32 undefined 22 -5.6 66 66 NW 3 6 30.18 1022 10 16 N/A
10:53 pm 22:53 Mostly Clear 26 -3.3 20 -6.7 78 78 WNW 5 7 30.20 1023 10 16 N/A
11:53 pm 23:53 Cloudy 32 undefined 21 -6.1 64 64 NE 5 7 30.18 1022 10 16 N/A

Powered by AerisWeather